| time (UTC) | temp F | wind direction | speed MPH | gust MPH | rain 1hr in | rain 24hr in | rain mn in | humidity % | barometer mb |
| 20260504234508 | 67 | 269 | 8.0 | 15.0 | 0.00 | 0.00 | 0.00 | 19 | 936.2 |
| 20260504233010 | 68 | 261 | 11.0 | 16.0 | 0.00 | 0.00 | 0.00 | 19 | 936.2 |
| 20260504231558 | 68 | 271 | 9.0 | 17.0 | 0.00 | 0.00 | 0.00 | 17 | 936.3 |
| 20260504230059 | 67 | 305 | 7.0 | 15.0 | 0.00 | 0.00 | 0.00 | 17 | 936.2 |
| 20260504224530 | 67 | 250 | 9.0 | 15.0 | 0.00 | 0.00 | 0.00 | 17 | 936.5 |
| 20260504223013 | 67 | 219 | 5.0 | 15.0 | 0.00 | 0.00 | 0.00 | 17 | 936.5 |
| 20260504221548 | 68 | 277 | 8.0 | 16.0 | 0.00 | 0.00 | 0.00 | 19 | 936.6 |
| 20260504220038 | 68 | 312 | 6.0 | 17.0 | 0.00 | 0.00 | 0.00 | 19 | 936.8 |
| 20260504214510 | 68 | 273 | 9.0 | 16.0 | 0.00 | 0.00 | 0.00 | 19 | 936.9 |
| 20260504213042 | 67 | 298 | 4.0 | 18.0 | 0.00 | 0.00 | 0.00 | 19 | 937.2 |
| 20260504211528 | 68 | 265 | 8.0 | 15.0 | 0.00 | 0.00 | 0.00 | 20 | 937.2 |
| 20260504210058 | 67 | 328 | 8.0 | 14.0 | 0.00 | 0.00 | 0.00 | 21 | 937.4 |
| 20260504204535 | 67 | 254 | 5.0 | 17.0 | 0.00 | 0.00 | 0.00 | 22 | 937.5 |
| 20260504203012 | 67 | 302 | 8.0 | 17.0 | 0.00 | 0.00 | 0.00 | 22 | 937.6 |
| 20260504201601 | 67 | 219 | 10.0 | 17.0 | 0.00 | 0.00 | 0.00 | 25 | 937.7 |
| 20260504200029 | 66 | 265 | 5.0 | 15.0 | 0.00 | 0.00 | 0.00 | 27 | 937.8 |
| 20260504194506 | 66 | 269 | 7.0 | 12.0 | 0.00 | 0.00 | 0.00 | 27 | 937.9 |
| 20260504193043 | 65 | 211 | 5.0 | 13.0 | 0.00 | 0.00 | 0.00 | 27 | 938.1 |
| 20260504191523 | 66 | 276 | 9.0 | 14.0 | 0.00 | 0.00 | 0.00 | 27 | 938.4 |
| 20260504190115 | 66 | 251 | 9.0 | 14.0 | 0.00 | 0.00 | 0.00 | 28 | 938.5 |
| 20260504184535 | 65 | 262 | 7.0 | 13.0 | 0.00 | 0.00 | 0.00 | 26 | 938.7 |
| 20260504183014 | 65 | 305 | 3.0 | 12.0 | 0.00 | 0.00 | 0.00 | 28 | 938.8 |
| 20260504181548 | 63 | 246 | 3.0 | 12.0 | 0.00 | 0.00 | 0.00 | 27 | 938.9 |
| 20260504180026 | 64 | 280 | 3.0 | 14.0 | 0.00 | 0.00 | 0.00 | 28 | 939.1 |
| 20260504174507 | 62 | 157 | 6.0 | 11.0 | 0.00 | 0.00 | 0.00 | 27 | 939.4 |
| 20260504173040 | 62 | 151 | 4.0 | 11.0 | 0.00 | 0.00 | 0.00 | 28 | 939.4 |
| 20260504171520 | 61 | 149 | 5.0 | 9.0 | 0.00 | 0.00 | 0.00 | 28 | 939.5 |
| 20260504140110 | 55 | 169 | 1.0 | 3.0 | 0.00 | 0.00 | 0.00 | 33 | 939.7 |
| 20260504081544 | 53 | 63 | 0.0 | 3.0 | 0.00 | 0.00 | 0.00 | 32 | 940.1 |
| 20260504044525 | 56 | 110 | 9.0 | 12.0 | 0.00 | 0.00 | 0.00 | 29 | 941.2 |
| 20260504043004 | 57 | 110 | 8.0 | 11.0 | 0.00 | 0.00 | 0.00 | 28 | 941.2 |
| 20260504041551 | 57 | 121 | 7.0 | 13.0 | 0.00 | 0.00 | 0.00 | 31 | 941.2 |
| 20260504040049 | 57 | 117 | 8.0 | 11.0 | 0.00 | 0.00 | 0.00 | 26 | 941.1 |
| 20260504034551 | 58 | 111 | 6.0 | 10.0 | 0.00 | 0.00 | 0.00 | 26 | 941.1 |
| 20260504033108 | 58 | 108 | 7.0 | 9.0 | 0.00 | 0.00 | 0.00 | 26 | 941.1 |
| 20260504031604 | 58 | 109 | 7.0 | 10.0 | 0.00 | 0.00 | 0.00 | 25 | 941.1 |
| 20260504031506 | 58 | 116 | 7.0 | 10.0 | 0.00 | 0.00 | 0.00 | 25 | 941.1 |
| 20260504030006 | 58 | 85 | 6.0 | 10.0 | 0.00 | 0.00 | 0.00 | 26 | 941.0 |
| 20260504024528 | 58 | 136 | 6.0 | 9.0 | 0.00 | 0.00 | 0.00 | 26 | 941.0 |
| 20260504023101 | 59 | 107 | 4.0 | 8.0 | 0.00 | 0.00 | 0.00 | 26 | 941.0 |
| 20260504023007 | 59 | 107 | 4.0 | 8.0 | 0.00 | 0.00 | 0.00 | 25 | 941.1 |
| 20260504021506 | 60 | 117 | 5.0 | 8.0 | 0.00 | 0.00 | 0.00 | 25 | 941.1 |
| 20260504020006 | 61 | 117 | 4.0 | 8.0 | 0.00 | 0.00 | 0.00 | 24 | 941.1 |
| 20260504014601 | 62 | 128 | 3.0 | 6.0 | 0.00 | 0.00 | 0.00 | 24 | 941.3 |
| 20260504014502 | 62 | 164 | 2.0 | 5.0 | 0.00 | 0.00 | 0.00 | 23 | 941.3 |
| 20260504013005 | 63 | 127 | 2.0 | 8.0 | 0.00 | 0.00 | 0.00 | 22 | 941.5 |
| 20260504011557 | 65 | 180 | 5.0 | 9.0 | 0.00 | 0.00 | 0.00 | 21 | 941.7 |
| 20260504011505 | 65 | 163 | 5.0 | 9.0 | 0.00 | 0.00 | 0.00 | 21 | 941.7 |
| 20260504010055 | 66 | 209 | 4.0 | 10.0 | 0.00 | 0.00 | 0.00 | 19 | 941.8 |
| 20260504004601 | 67 | 201 | 0.0 | 10.0 | 0.00 | 0.00 | 0.00 | 15 | 941.9 |
| 20260504003046 | 67 | 254 | 7.0 | 14.0 | 0.00 | 0.00 | 0.00 | 15 | 942.1 |
| 20260504001556 | 68 | 246 | 5.0 | 12.0 | 0.00 | 0.00 | 0.00 | 17 | 942.1 |
| 20260504000042 | 68 | 267 | 0.0 | 7.0 | 0.00 | 0.00 | 0.00 | 16 | 942.1 |